Time,TemperatureF,DewpointF,PressureIn,WindDirection,WindDirectionDegrees,WindSpeedMPH,WindSpeedGustMPH,Humidity,HourlyPrecipIn,Conditions,Clouds,dailyrainin,SoftwareType,DateUTC
2013-01-24 00:00:00,16.3,3.7,30.22,NW,316,6.0,16.0,57,0.00,,,0.00,meteohub,2013-01-24 05:00:00,
2013-01-24 00:01:00,16.3,4.5,30.22,NNW,334,4.0,15.0,59,0.00,,,0.00,meteohub,2013-01-24 05:01:00,
2013-01-24 00:03:00,16.3,4.5,30.22,North,358,7.0,15.0,59,0.00,,,0.00,meteohub,2013-01-24 05:03:00,
2013-01-24 00:08:00,16.0,4.1,30.22,NW,305,2.0,15.0,59,0.00,,,0.00,meteohub,2013-01-24 05:08:00,
2013-01-24 00:13:00,16.0,4.8,30.22,NW,312,5.0,21.0,61,0.00,,,0.00,meteohub,2013-01-24 05:13:00,
2013-01-24 00:18:00,16.2,5.0,30.22,WNW,294,5.0,21.0,61,0.00,,,0.00,meteohub,2013-01-24 05:18:00,
2013-01-24 00:23:00,16.2,4.6,30.22,WNW,301,6.0,14.0,60,0.00,,,0.00,meteohub,2013-01-24 05:23:00,
2013-01-24 00:28:00,16.2,4.6,30.22,NNW,332,5.0,9.0,60,0.00,,,0.00,meteohub,2013-01-24 05:28:00,
2013-01-24 00:33:00,16.2,5.4,30.22,WNW,303,5.0,9.0,62,0.00,,,0.00,meteohub,2013-01-24 05:33:00,
2013-01-24 00:38:00,16.2,5.7,30.22,NW,307,3.0,9.0,63,0.00,,,0.00,meteohub,2013-01-24 05:38:00,
2013-01-24 00:43:00,16.2,5.0,30.22,WNW,288,2.0,9.0,61,0.00,,,0.00,meteohub,2013-01-24 05:43:00,
2013-01-24 00:48:00,16.3,5.5,30.21,WNW,300,4.0,9.0,62,0.00,,,0.00,meteohub,2013-01-24 05:48:00,
2013-01-24 00:53:00,16.2,4.6,30.21,West,276,3.0,9.0,60,0.00,,,0.00,meteohub,2013-01-24 05:53:00,
2013-01-24 00:58:00,16.2,5.0,30.21,WNW,290,2.0,9.0,61,0.00,,,0.00,meteohub,2013-01-24 05:58:00,
2013-01-24 01:03:00,16.0,4.8,30.21,WNW,288,3.0,9.0,61,0.00,,,0.00,meteohub,2013-01-24 06:03:00,
2013-01-24 01:08:00,16.2,5.4,30.20,NW,314,3.0,9.0,62,0.00,,,0.00,meteohub,2013-01-24 06:08:00,
2013-01-24 01:13:00,16.3,5.2,30.20,NW,316,4.0,9.0,61,0.00,,,0.00,meteohub,2013-01-24 06:13:00,
2013-01-24 01:18:00,16.2,4.6,30.20,NW,305,3.0,10.0,60,0.00,,,0.00,meteohub,2013-01-24 06:18:00,
2013-01-24 01:23:00,16.2,4.6,30.20,NW,319,5.0,10.0,60,0.00,,,0.00,meteohub,2013-01-24 06:23:00,
2013-01-24 01:28:00,16.3,5.9,30.20,NNW,339,11.0,11.0,63,0.00,,,0.00,meteohub,2013-01-24 06:28:00,
2013-01-24 01:33:00,16.3,4.8,30.20,NW,305,5.0,15.0,60,0.00,,,0.00,meteohub,2013-01-24 06:33:00,
2013-01-24 01:38:00,16.3,5.9,30.20,NW,311,7.0,15.0,63,0.00,,,0.00,meteohub,2013-01-24 06:38:00,
2013-01-24 01:43:00,16.2,6.4,30.20,NW,313,7.0,15.0,65,0.00,,,0.00,meteohub,2013-01-24 06:43:00,
2013-01-24 01:48:00,16.3,5.9,30.20,NW,306,4.0,15.0,63,0.00,,,0.00,meteohub,2013-01-24 06:48:00,
2013-01-24 01:54:00,16.3,6.6,30.20,NW,311,5.0,11.0,65,0.00,,,0.00,meteohub,2013-01-24 06:54:00,
2013-01-24 01:59:00,16.2,6.8,30.20,NNW,333,5.0,12.0,66,0.00,,,0.00,meteohub,2013-01-24 06:59:00,
2013-01-24 02:04:00,16.0,5.9,30.20,WNW,293,5.0,12.0,64,0.00,,,0.00,meteohub,2013-01-24 07:04:00,
2013-01-24 02:09:00,16.0,5.2,30.20,NW,309,6.0,12.0,62,0.00,,,0.00,meteohub,2013-01-24 07:09:00,
2013-01-24 02:14:00,16.0,6.6,30.20,NW,323,4.0,12.0,66,0.00,,,0.00,meteohub,2013-01-24 07:14:00,
2013-01-24 02:19:00,16.0,7.0,30.20,North,1,5.0,12.0,67,0.00,,,0.00,meteohub,2013-01-24 07:19:00,
2013-01-24 02:24:00,16.0,6.6,30.20,NW,316,4.0,10.0,66,0.00,,,0.00,meteohub,2013-01-24 07:24:00,
2013-01-24 02:29:00,15.8,6.1,30.19,WNW,299,4.0,10.0,65,0.00,,,0.00,meteohub,2013-01-24 07:29:00,
2013-01-24 02:34:00,15.8,5.7,30.19,NW,318,5.0,10.0,64,0.00,,,0.00,meteohub,2013-01-24 07:34:00,
2013-01-24 02:39:00,15.8,5.4,30.19,NW,305,4.0,12.0,63,0.00,,,0.00,meteohub,2013-01-24 07:39:00,
2013-01-24 02:44:00,15.8,6.4,30.19,North,5,8.0,15.0,66,0.00,,,0.00,meteohub,2013-01-24 07:44:00,
2013-01-24 02:49:00,15.8,5.4,30.18,SW,232,4.0,15.0,63,0.00,,,0.00,meteohub,2013-01-24 07:49:00,
2013-01-24 02:54:00,16.0,5.2,30.18,NW,311,4.0,15.0,62,0.00,,,0.00,meteohub,2013-01-24 07:54:00,
2013-01-24 02:59:00,16.0,4.1,30.18,NW,305,5.0,11.0,59,0.00,,,0.00,meteohub,2013-01-24 07:59:00,
2013-01-24 03:04:00,16.0,4.5,30.17,NW,313,5.0,10.0,60,0.00,,,0.00,meteohub,2013-01-24 08:04:00,
2013-01-24 03:09:00,16.0,3.7,30.18,NNW,341,7.0,13.0,58,0.00,,,0.00,meteohub,2013-01-24 08:09:00,
2013-01-24 03:14:00,16.0,4.8,30.18,WNW,291,5.0,13.0,61,0.00,,,0.00,meteohub,2013-01-24 08:14:00,
2013-01-24 03:19:00,16.0,3.4,30.17,West,277,6.0,13.0,57,0.00,,,0.00,meteohub,2013-01-24 08:19:00,
2013-01-24 03:24:00,16.2,4.3,30.17,NW,314,6.0,13.0,59,0.00,,,0.00,meteohub,2013-01-24 08:24:00,
2013-01-24 03:29:00,16.2,3.9,30.17,NNW,329,9.0,13.0,58,0.00,,,0.00,meteohub,2013-01-24 08:29:00,
2013-01-24 03:34:00,16.2,5.0,30.17,WNW,290,6.0,13.0,61,0.00,,,0.00,meteohub,2013-01-24 08:34:00,
2013-01-24 03:39:00,16.2,5.0,30.17,NNW,345,4.0,14.0,61,0.00,,,0.00,meteohub,2013-01-24 08:39:00,
2013-01-24 03:44:00,16.3,5.9,30.17,NW,318,9.0,14.0,63,0.00,,,0.00,meteohub,2013-01-24 08:44:00,
2013-01-24 03:50:00,16.3,6.6,30.17,North,6,11.0,14.0,65,0.00,,,0.00,meteohub,2013-01-24 08:50:00,
2013-01-24 03:55:00,16.3,6.6,30.17,North,6,5.0,16.0,65,0.00,,,0.00,meteohub,2013-01-24 08:55:00,
2013-01-24 04:00:00,16.2,7.7,30.17,North,1,13.0,16.0,69,0.00,,,0.00,meteohub,2013-01-24 09:00:00,
2013-01-24 04:05:00,16.0,8.2,30.17,NNE,15,13.0,18.0,71,0.00,,,0.00,meteohub,2013-01-24 09:05:00,
2013-01-24 04:10:00,15.6,7.5,30.17,NNE,15,9.0,18.0,70,0.00,,,0.00,meteohub,2013-01-24 09:10:00,
2013-01-24 04:15:00,15.6,7.5,30.17,North,354,9.0,18.0,70,0.00,,,0.00,meteohub,2013-01-24 09:15:00,
2013-01-24 04:20:00,15.4,7.3,30.18,NNE,26,12.0,18.0,70,0.00,,,0.00,meteohub,2013-01-24 09:20:00,
2013-01-24 04:25:00,14.9,7.5,30.17,NNW,333,7.0,18.0,72,0.00,,,0.00,meteohub,2013-01-24 09:25:00,
2013-01-24 04:30:00,15.8,8.4,30.17,NNE,23,9.0,18.0,72,0.00,,,0.00,meteohub,2013-01-24 09:30:00,
2013-01-24 07:47:00,15.6,8.2,30.21,North,-999,-999.0,-999.0,72,-99.99,,,0.00,meteohub,2013-01-24 12:47:00,
2013-01-24 07:52:00,15.4,8.1,30.21,North,-999,-999.0,-999.0,72,0.00,,,0.00,meteohub,2013-01-24 12:52:00,
2013-01-24 07:57:00,15.4,7.3,30.21,NNW,340,22.0,-999.0,70,0.00,,,0.00,meteohub,2013-01-24 12:57:00,
2013-01-24 08:02:00,15.4,8.6,30.21,NW,321,16.0,24.0,74,0.00,,,0.00,meteohub,2013-01-24 13:02:00,
2013-01-24 08:07:00,15.3,7.2,30.21,NW,326,14.0,24.0,70,0.00,,,0.00,meteohub,2013-01-24 13:07:00,
2013-01-24 08:12:00,15.3,7.5,30.22,NNW,335,13.0,24.0,71,0.00,,,0.00,meteohub,2013-01-24 13:12:00,
2013-01-24 08:17:00,15.6,8.8,30.22,NW,318,14.0,25.0,74,0.00,,,0.00,meteohub,2013-01-24 13:17:00,
2013-01-24 08:22:00,15.6,8.6,30.22,NW,320,14.0,25.0,73,0.00,,,0.00,meteohub,2013-01-24 13:22:00,
2013-01-24 08:27:00,15.4,7.3,30.22,NW,323,22.0,27.0,70,0.00,,,0.00,meteohub,2013-01-24 13:27:00,
2013-01-24 08:32:00,15.4,8.1,30.22,NW,311,17.0,28.0,72,0.00,,,0.00,meteohub,2013-01-24 13:32:00,
2013-01-24 08:37:00,15.4,8.4,30.22,NNW,345,13.0,30.0,73,0.00,,,0.00,meteohub,2013-01-24 13:37:00,
2013-01-24 08:42:00,15.4,8.4,30.22,NNW,333,16.0,30.0,73,0.00,,,0.00,meteohub,2013-01-24 13:42:00,
2013-01-24 08:47:00,15.4,8.1,30.22,NNW,339,19.0,30.0,72,0.00,,,0.00,meteohub,2013-01-24 13:47:00,
2013-01-24 08:52:00,15.4,8.6,30.22,NNW,332,18.0,29.0,74,0.00,,,0.00,meteohub,2013-01-24 13:52:00,
2013-01-24 08:57:00,15.4,8.1,30.22,NNW,340,21.0,29.0,72,0.00,,,0.00,meteohub,2013-01-24 13:57:00,
2013-01-24 09:02:00,15.4,8.4,30.22,NW,316,16.0,30.0,73,0.00,,,0.00,meteohub,2013-01-24 14:02:00,
2013-01-24 09:07:00,15.6,8.6,30.22,NNE,25,23.0,30.0,73,0.00,,,0.00,meteohub,2013-01-24 14:07:00,
2013-01-24 09:12:00,15.8,9.5,30.22,NNW,342,17.0,30.0,76,0.00,,,0.00,meteohub,2013-01-24 14:12:00,
2013-01-24 09:17:00,15.6,8.6,30.22,NW,306,10.0,28.0,73,0.00,,,0.00,meteohub,2013-01-24 14:17:00,
2013-01-24 09:23:00,15.8,8.6,30.22,NW,314,10.0,34.0,73,0.00,,,0.00,meteohub,2013-01-24 14:23:00,
2013-01-24 09:28:00,16.2,9.3,30.22,NW,322,11.0,34.0,74,0.00,,,0.00,meteohub,2013-01-24 14:28:00,
2013-01-24 09:33:00,16.0,8.6,30.22,NW,326,10.0,34.0,72,0.00,,,0.00,meteohub,2013-01-24 14:33:00,
2013-01-24 09:38:00,16.2,9.3,30.22,North,8,16.0,27.0,74,0.00,,,0.00,meteohub,2013-01-24 14:38:00,
2013-01-24 09:43:00,16.3,9.5,30.23,NNW,338,13.0,26.0,74,0.00,,,0.00,meteohub,2013-01-24 14:43:00,
2013-01-24 09:48:00,16.2,8.4,30.23,NW,316,20.0,29.0,71,0.00,,,0.00,meteohub,2013-01-24 14:48:00,
2013-01-24 09:53:00,16.0,8.2,30.23,NNW,334,12.0,29.0,71,0.00,,,0.00,meteohub,2013-01-24 14:53:00,
2013-01-24 09:58:00,16.0,8.8,30.22,NW,320,19.0,29.0,73,0.00,,,0.00,meteohub,2013-01-24 14:58:00,
2013-01-24 10:03:00,15.8,7.7,30.23,NW,325,9.0,29.0,70,0.00,,,0.00,meteohub,2013-01-24 15:03:00,
2013-01-24 10:08:00,15.8,7.7,30.23,NNW,328,11.0,23.0,70,0.00,,,0.00,meteohub,2013-01-24 15:08:00,
2013-01-24 10:13:00,16.0,8.2,30.23,NW,314,18.0,23.0,71,0.00,,,0.00,meteohub,2013-01-24 15:13:00,
2013-01-24 10:18:00,16.0,8.6,30.23,NNW,327,9.0,29.0,72,0.00,,,0.00,meteohub,2013-01-24 15:18:00,
2013-01-24 10:23:00,16.0,7.7,30.23,North,355,11.0,29.0,69,0.00,,,0.00,meteohub,2013-01-24 15:23:00,
2013-01-24 10:28:00,15.8,7.5,30.23,NNW,340,14.0,29.0,69,0.00,,,0.00,meteohub,2013-01-24 15:28:00,
2013-01-24 10:33:00,16.0,8.2,30.23,NNW,333,12.0,28.0,71,0.00,,,0.00,meteohub,2013-01-24 15:33:00,
2013-01-24 10:38:00,16.0,7.9,30.23,NW,305,13.0,23.0,70,0.00,,,0.00,meteohub,2013-01-24 15:38:00,
2013-01-24 10:43:00,16.0,7.7,30.23,WNW,302,6.0,21.0,69,0.00,,,0.00,meteohub,2013-01-24 15:43:00,
2013-01-24 10:48:00,16.3,8.6,30.23,NW,320,16.0,22.0,71,0.00,,,0.00,meteohub,2013-01-24 15:48:00,
2013-01-24 10:53:00,16.3,8.2,30.23,NW,316,8.0,22.0,70,0.00,,,0.00,meteohub,2013-01-24 15:53:00,
2013-01-24 10:58:00,16.7,8.1,30.23,NW,317,16.0,22.0,68,0.00,,,0.00,meteohub,2013-01-24 15:58:00,
2013-01-24 11:03:00,17.1,8.2,30.22,NNW,347,12.0,23.0,68,0.00,,,0.00,meteohub,2013-01-24 16:03:00,
2013-01-24 11:08:00,17.2,8.4,30.22,NW,322,9.0,27.0,68,0.00,,,0.00,meteohub,2013-01-24 16:08:00,
2013-01-24 11:13:00,17.2,7.2,30.22,WNW,292,13.0,27.0,64,0.00,,,0.00,meteohub,2013-01-24 16:13:00,
2013-01-24 11:18:00,17.2,7.2,30.22,WNW,298,15.0,27.0,64,0.00,,,0.00,meteohub,2013-01-24 16:18:00,
2013-01-24 11:23:00,17.2,6.4,30.22,NW,322,13.0,26.0,62,0.00,,,0.00,meteohub,2013-01-24 16:23:00,
2013-01-24 11:28:00,17.2,6.4,30.22,NW,309,12.0,32.0,62,0.00,,,0.00,meteohub,2013-01-24 16:28:00,
2013-01-24 11:33:00,17.4,7.0,30.22,NNW,337,15.0,32.0,63,0.00,,,0.00,meteohub,2013-01-24 16:33:00,
2013-01-24 11:38:00,17.8,7.0,30.22,North,351,17.0,32.0,62,0.00,,,0.00,meteohub,2013-01-24 16:38:00,
2013-01-24 11:43:00,17.6,6.4,30.21,West,276,13.0,29.0,61,0.00,,,0.00,meteohub,2013-01-24 16:43:00,
2013-01-24 11:48:00,18.0,6.8,30.21,NNW,327,11.0,34.0,61,0.00,,,0.00,meteohub,2013-01-24 16:48:00,
2013-01-24 11:53:00,18.0,5.7,30.21,NNW,328,20.0,34.0,58,0.00,,,0.00,meteohub,2013-01-24 16:53:00,
2013-01-24 11:58:00,17.8,5.9,30.22,NNW,332,11.0,34.0,59,0.00,,,0.00,meteohub,2013-01-24 16:58:00,
2013-01-24 12:03:00,18.1,7.0,30.21,NNW,342,18.0,30.0,61,0.00,,,0.00,meteohub,2013-01-24 17:03:00,
2013-01-24 12:08:00,18.1,5.5,30.21,NW,325,13.0,30.0,57,0.00,,,0.00,meteohub,2013-01-24 17:08:00,
2013-01-24 12:13:00,18.3,7.9,30.21,WNW,299,9.0,29.0,63,0.00,,,0.00,meteohub,2013-01-24 17:13:00,
2013-01-24 12:18:00,18.3,6.1,30.21,NW,316,10.0,29.0,58,0.00,,,0.00,meteohub,2013-01-24 17:18:00,
2013-01-24 12:23:00,18.3,6.4,30.21,NW,314,10.0,25.0,59,0.00,,,0.00,meteohub,2013-01-24 17:23:00,
2013-01-24 12:28:00,18.3,5.2,30.21,NW,316,9.0,26.0,56,0.00,,,0.00,meteohub,2013-01-24 17:28:00,
2013-01-24 12:33:00,18.3,5.7,30.21,NW,326,15.0,26.0,57,0.00,,,0.00,meteohub,2013-01-24 17:33:00,
2013-01-24 12:38:00,18.7,6.4,30.21,NW,324,7.0,26.0,58,0.00,,,0.00,meteohub,2013-01-24 17:38:00,
2013-01-24 12:43:00,19.0,9.0,30.21,NW,326,13.0,26.0,64,0.00,,,0.00,meteohub,2013-01-24 17:43:00,
2013-01-24 12:48:00,19.2,8.1,30.21,NW,323,11.0,26.0,61,0.00,,,0.00,meteohub,2013-01-24 17:48:00,
2013-01-24 12:53:00,19.2,5.7,30.21,WNW,299,7.0,22.0,55,0.00,,,0.00,meteohub,2013-01-24 17:53:00,
2013-01-24 12:58:00,19.2,6.8,30.21,NW,315,12.0,28.0,58,0.00,,,0.00,meteohub,2013-01-24 17:58:00,
2013-01-24 13:00:00,19.4,7.3,30.21,WNW,283,14.0,28.0,59,0.00,,,0.00,meteohub,2013-01-24 18:00:00,
2013-01-24 13:07:00,19.6,7.5,30.21,NW,309,10.0,28.0,59,0.00,,,0.00,meteohub,2013-01-24 18:07:00,
2013-01-24 13:12:00,19.6,6.4,30.21,NNW,340,14.0,23.0,56,0.00,,,0.00,meteohub,2013-01-24 18:12:00,
2013-01-24 13:17:00,19.4,6.6,30.21,NW,314,13.0,24.0,57,0.00,,,0.00,meteohub,2013-01-24 18:17:00,
2013-01-24 13:22:00,19.8,7.0,30.21,NW,314,13.0,24.0,57,0.00,,,0.00,meteohub,2013-01-24 18:22:00,
2013-01-24 13:27:00,19.9,7.5,30.21,NW,318,14.0,28.0,58,0.00,,,0.00,meteohub,2013-01-24 18:27:00,
2013-01-24 13:32:00,19.8,5.4,30.21,WNW,302,18.0,30.0,53,0.00,,,0.00,meteohub,2013-01-24 18:32:00,
2013-01-24 13:37:00,19.9,5.5,30.21,NW,315,14.0,30.0,53,0.00,,,0.00,meteohub,2013-01-24 18:37:00,
2013-01-24 13:42:00,20.1,7.0,30.21,NNW,330,13.0,36.0,56,0.00,,,0.00,meteohub,2013-01-24 18:42:00,
2013-01-24 13:47:00,20.3,5.9,30.21,NNW,332,17.0,36.0,53,0.00,,,0.00,meteohub,2013-01-24 18:47:00,
2013-01-24 13:52:00,20.5,7.7,30.21,NW,316,10.0,36.0,57,0.00,,,0.00,meteohub,2013-01-24 18:52:00,
2013-01-24 13:57:00,20.5,6.4,30.21,NW,312,18.0,32.0,54,0.00,,,0.00,meteohub,2013-01-24 18:57:00,
2013-01-24 14:02:00,20.5,6.4,30.22,NNW,338,13.0,32.0,54,0.00,,,0.00,meteohub,2013-01-24 19:02:00,
2013-01-24 14:07:00,20.5,5.2,30.21,NW,320,12.0,30.0,51,0.00,,,0.00,meteohub,2013-01-24 19:07:00,
2013-01-24 14:12:00,20.8,7.2,30.21,NW,312,15.0,30.0,55,0.00,,,0.00,meteohub,2013-01-24 19:12:00,
2013-01-24 14:17:00,21.0,7.0,30.22,NNW,328,24.0,29.0,54,0.00,,,0.00,meteohub,2013-01-24 19:17:00,
2013-01-24 14:22:00,20.8,7.2,30.22,NW,316,10.0,33.0,55,0.00,,,0.00,meteohub,2013-01-24 19:22:00,
2013-01-24 14:27:00,21.2,9.1,30.22,NW,325,13.0,33.0,59,0.00,,,0.00,meteohub,2013-01-24 19:27:00,
2013-01-24 14:32:00,21.4,7.7,30.23,North,352,19.0,32.0,55,0.00,,,0.00,meteohub,2013-01-24 19:32:00,
2013-01-24 14:37:00,21.6,9.1,30.23,WNW,293,11.0,31.0,58,0.00,,,0.00,meteohub,2013-01-24 19:37:00,
2013-01-24 14:42:00,21.6,7.9,30.23,NNW,334,19.0,31.0,55,0.00,,,0.00,meteohub,2013-01-24 19:42:00,
2013-01-24 14:47:00,21.6,7.9,30.23,NW,316,15.0,31.0,55,0.00,,,0.00,meteohub,2013-01-24 19:47:00,
2013-01-24 14:52:00,21.7,8.4,30.23,North,354,17.0,29.0,56,0.00,,,0.00,meteohub,2013-01-24 19:52:00,
2013-01-24 14:57:00,21.7,7.7,30.23,NNW,333,10.0,30.0,54,0.00,,,0.00,meteohub,2013-01-24 19:57:00,
2013-01-24 15:02:00,21.9,9.0,30.24,NW,312,12.0,30.0,57,0.00,,,0.00,meteohub,2013-01-24 20:02:00,
2013-01-24 15:07:00,22.3,9.3,30.24,NW,317,11.0,30.0,57,0.00,,,0.00,meteohub,2013-01-24 20:07:00,
2013-01-24 15:12:00,21.9,5.2,30.24,NNW,336,14.0,21.0,48,0.00,,,0.00,meteohub,2013-01-24 20:12:00,
2013-01-24 15:17:00,22.1,6.8,30.23,NW,320,12.0,26.0,51,0.00,,,0.00,meteohub,2013-01-24 20:17:00,
2013-01-24 15:22:00,22.3,8.6,30.24,NW,318,11.0,29.0,55,0.00,,,0.00,meteohub,2013-01-24 20:22:00,
2013-01-24 15:27:00,22.5,7.5,30.24,WNW,300,19.0,29.0,52,0.00,,,0.00,meteohub,2013-01-24 20:27:00,
2013-01-24 15:32:00,22.5,6.3,30.24,West,281,18.0,29.0,49,0.00,,,0.00,meteohub,2013-01-24 20:32:00,
2013-01-24 15:37:00,22.3,5.2,30.24,NW,318,13.0,29.0,47,0.00,,,0.00,meteohub,2013-01-24 20:37:00,
2013-01-24 15:42:00,22.3,5.2,30.24,North,354,26.0,29.0,47,0.00,,,0.00,meteohub,2013-01-24 20:42:00,
2013-01-24 15:47:00,22.6,6.8,30.23,NNW,327,12.0,29.0,50,0.00,,,0.00,meteohub,2013-01-24 20:47:00,
2013-01-24 15:52:00,23.0,9.7,30.24,NW,316,11.0,26.0,56,0.00,,,0.00,meteohub,2013-01-24 20:52:00,
2013-01-24 15:57:00,23.0,8.4,30.24,NW,312,13.0,26.0,53,0.00,,,0.00,meteohub,2013-01-24 20:57:00,
2013-01-24 16:02:00,23.0,8.4,30.24,NNW,329,11.0,24.0,53,0.00,,,0.00,meteohub,2013-01-24 21:02:00,
2013-01-24 16:07:00,22.8,7.9,30.24,WNW,285,7.0,19.0,52,0.00,,,0.00,meteohub,2013-01-24 21:07:00,
2013-01-24 16:12:00,22.8,7.0,30.24,NW,321,13.0,19.0,50,0.00,,,0.00,meteohub,2013-01-24 21:12:00,
2013-01-24 16:17:00,22.8,8.2,30.25,NW,309,12.0,19.0,53,0.00,,,0.00,meteohub,2013-01-24 21:17:00,
2013-01-24 16:22:00,23.0,7.2,30.25,NW,304,15.0,20.0,50,0.00,,,0.00,meteohub,2013-01-24 21:22:00,
2013-01-24 16:27:00,23.2,9.3,30.24,NW,308,11.0,20.0,55,0.00,,,0.00,meteohub,2013-01-24 21:27:00,
2013-01-24 16:32:00,22.8,7.0,30.25,WNW,298,10.0,20.0,50,0.00,,,0.00,meteohub,2013-01-24 21:32:00,
2013-01-24 16:37:00,22.8,7.9,30.25,WNW,300,13.0,20.0,52,0.00,,,0.00,meteohub,2013-01-24 21:37:00,
2013-01-24 16:42:00,22.8,7.9,30.25,WNW,295,7.0,20.0,52,0.00,,,0.00,meteohub,2013-01-24 21:42:00,
2013-01-24 16:47:00,22.8,8.2,30.25,NW,316,11.0,18.0,53,0.00,,,0.00,meteohub,2013-01-24 21:47:00,
2013-01-24 16:52:00,23.0,9.7,30.25,WNW,301,13.0,20.0,56,0.00,,,0.00,meteohub,2013-01-24 21:52:00,
2013-01-24 16:57:00,23.4,9.1,30.26,NW,315,13.0,20.0,54,0.00,,,0.00,meteohub,2013-01-24 21:57:00,
2013-01-24 17:02:00,23.2,8.2,30.26,WNW,292,13.0,24.0,52,0.00,,,0.00,meteohub,2013-01-24 22:02:00,
2013-01-24 17:07:00,23.2,6.8,30.27,NW,305,19.0,29.0,49,0.00,,,0.00,meteohub,2013-01-24 22:07:00,
2013-01-24 17:12:00,23.2,8.2,30.27,NW,316,11.0,29.0,52,0.00,,,0.00,meteohub,2013-01-24 22:12:00,
2013-01-24 17:17:00,23.2,7.3,30.27,NW,309,12.0,29.0,50,0.00,,,0.00,meteohub,2013-01-24 22:17:00,
2013-01-24 17:22:00,23.2,8.6,30.27,NW,323,13.0,22.0,53,0.00,,,0.00,meteohub,2013-01-24 22:22:00,
2013-01-24 17:27:00,23.2,8.6,30.26,WNW,302,15.0,19.0,53,0.00,,,0.00,meteohub,2013-01-24 22:27:00,
2013-01-24 17:32:00,23.0,8.4,30.27,WNW,295,11.0,22.0,53,0.00,,,0.00,meteohub,2013-01-24 22:32:00,
2013-01-24 17:37:00,23.2,9.3,30.27,NNW,327,13.0,22.0,55,0.00,,,0.00,meteohub,2013-01-24 22:37:00,
2013-01-24 17:42:00,23.0,8.8,30.27,WNW,290,9.0,22.0,54,0.00,,,0.00,meteohub,2013-01-24 22:42:00,
2013-01-24 17:47:00,22.8,8.2,30.28,NW,316,11.0,18.0,53,0.00,,,0.00,meteohub,2013-01-24 22:47:00,
2013-01-24 17:52:00,22.8,7.9,30.28,WNW,288,15.0,18.0,52,0.00,,,0.00,meteohub,2013-01-24 22:52:00,
2013-01-24 17:57:00,22.8,8.2,30.29,WNW,283,13.0,17.0,53,0.00,,,0.00,meteohub,2013-01-24 22:57:00,
2013-01-24 18:02:00,22.8,9.5,30.29,WNW,300,8.0,18.0,56,0.00,,,0.00,meteohub,2013-01-24 23:02:00,
2013-01-24 18:07:00,22.8,9.1,30.29,NW,326,13.0,18.0,55,0.00,,,0.00,meteohub,2013-01-24 23:07:00,
2013-01-24 18:12:00,22.8,9.5,30.30,WNW,298,12.0,18.0,56,0.00,,,0.00,meteohub,2013-01-24 23:12:00,
2013-01-24 18:17:00,22.8,9.9,30.30,WNW,287,13.0,18.0,57,0.00,,,0.00,meteohub,2013-01-24 23:17:00,
2013-01-24 18:22:00,22.8,8.2,30.30,NW,313,19.0,21.0,53,0.00,,,0.00,meteohub,2013-01-24 23:22:00,
2013-01-24 18:27:00,22.8,8.2,30.31,NW,306,16.0,22.0,53,0.00,,,0.00,meteohub,2013-01-24 23:27:00,
2013-01-24 18:32:00,22.6,7.7,30.31,WNW,291,16.0,22.0,52,0.00,,,0.00,meteohub,2013-01-24 23:32:00,
2013-01-24 18:37:00,22.6,9.3,30.31,NW,309,9.0,22.0,56,0.00,,,0.00,meteohub,2013-01-24 23:37:00,
2013-01-24 18:42:00,22.6,7.7,30.31,WNW,295,11.0,19.0,52,0.00,,,0.00,meteohub,2013-01-24 23:42:00,
2013-01-24 18:47:00,22.3,7.0,30.31,WNW,292,10.0,23.0,51,0.00,,,0.00,meteohub,2013-01-24 23:47:00,
2013-01-24 18:52:00,22.3,9.7,30.31,WNW,291,12.0,24.0,58,0.00,,,0.00,meteohub,2013-01-24 23:52:00,
2013-01-24 18:57:00,22.3,9.0,30.31,WNW,300,14.0,24.0,56,0.00,,,0.00,meteohub,2013-01-24 23:57:00,
2013-01-24 19:02:00,22.3,8.2,30.31,NW,305,15.0,24.0,54,0.00,,,0.00,meteohub,2013-01-25 00:02:00,
2013-01-24 19:07:00,22.1,7.5,30.32,WNW,291,11.0,24.0,53,0.00,,,0.00,meteohub,2013-01-25 00:07:00,
2013-01-24 19:12:00,22.3,8.6,30.32,WNW,301,13.0,22.0,55,0.00,,,0.00,meteohub,2013-01-25 00:12:00,
2013-01-24 19:17:00,22.3,10.2,30.32,WNW,290,6.0,20.0,59,0.00,,,0.00,meteohub,2013-01-25 00:17:00,
2013-01-24 19:22:00,21.9,8.6,30.32,NW,312,9.0,19.0,56,0.00,,,0.00,meteohub,2013-01-25 00:22:00,
2013-01-24 19:27:00,21.7,7.7,30.33,WNW,293,12.0,18.0,54,0.00,,,0.00,meteohub,2013-01-25 00:27:00,
2013-01-24 19:32:00,21.7,8.4,30.32,WNW,302,13.0,18.0,56,0.00,,,0.00,meteohub,2013-01-25 00:32:00,
2013-01-24 19:37:00,21.7,8.8,30.32,WNW,296,8.0,18.0,57,0.00,,,0.00,meteohub,2013-01-25 00:37:00,
2013-01-24 19:42:00,21.6,8.2,30.33,NNW,343,12.0,19.0,56,0.00,,,0.00,meteohub,2013-01-25 00:42:00,
2013-01-24 19:47:00,21.6,9.5,30.33,NW,307,10.0,23.0,59,0.00,,,0.00,meteohub,2013-01-25 00:47:00,
2013-01-24 19:52:00,21.6,9.5,30.33,West,265,9.0,23.0,59,0.00,,,0.00,meteohub,2013-01-25 00:52:00,
2013-01-24 19:57:00,21.6,9.5,30.33,WNW,300,15.0,21.0,59,0.00,,,0.00,meteohub,2013-01-25 00:57:00,
2013-01-24 20:03:00,21.6,9.1,30.33,NW,312,10.0,21.0,58,0.00,,,0.00,meteohub,2013-01-25 01:03:00,
2013-01-24 20:08:00,21.4,8.6,30.33,NW,321,14.0,24.0,57,0.00,,,0.00,meteohub,2013-01-25 01:08:00,
2013-01-24 20:13:00,21.4,7.3,30.33,NW,306,12.0,24.0,54,0.00,,,0.00,meteohub,2013-01-25 01:13:00,
2013-01-24 20:18:00,21.4,9.3,30.32,WNW,284,10.0,24.0,59,0.00,,,0.00,meteohub,2013-01-25 01:18:00,
2013-01-24 20:23:00,21.4,8.1,30.32,WNW,300,14.0,20.0,56,0.00,,,0.00,meteohub,2013-01-25 01:23:00,
2013-01-24 20:28:00,21.2,8.4,30.32,NW,307,13.0,24.0,57,0.00,,,0.00,meteohub,2013-01-25 01:28:00,
2013-01-24 20:33:00,21.2,9.9,30.32,WNW,302,10.0,24.0,61,0.00,,,0.00,meteohub,2013-01-25 01:33:00,
2013-01-24 20:38:00,21.4,9.7,30.32,NW,323,17.0,24.0,60,0.00,,,0.00,meteohub,2013-01-25 01:38:00,
2013-01-24 20:43:00,21.2,9.1,30.32,NW,305,16.0,24.0,59,0.00,,,0.00,meteohub,2013-01-25 01:43:00,
2013-01-24 20:48:00,21.4,8.6,30.32,NW,305,8.0,22.0,57,0.00,,,0.00,meteohub,2013-01-25 01:48:00,
2013-01-24 20:53:00,21.2,7.5,30.32,WNW,297,11.0,22.0,55,0.00,,,0.00,meteohub,2013-01-25 01:53:00,
2013-01-24 20:58:00,21.4,11.1,30.32,WNW,283,15.0,22.0,64,0.00,,,0.00,meteohub,2013-01-25 01:58:00,
2013-01-24 21:03:00,21.0,9.0,30.33,NW,306,6.0,22.0,59,0.00,,,0.00,meteohub,2013-01-25 02:03:00,
2013-01-24 21:08:00,21.0,10.0,30.33,NW,305,15.0,22.0,62,0.00,,,0.00,meteohub,2013-01-25 02:08:00,
2013-01-24 21:13:00,21.0,9.0,30.33,WNW,284,8.0,19.0,59,0.00,,,0.00,meteohub,2013-01-25 02:13:00,
2013-01-24 21:18:00,21.0,7.0,30.33,NW,311,13.0,23.0,54,0.00,,,0.00,meteohub,2013-01-25 02:18:00,
2013-01-24 21:23:00,21.0,7.0,30.33,NW,309,13.0,23.0,54,0.00,,,0.00,meteohub,2013-01-25 02:23:00,
2013-01-24 21:28:00,21.0,8.6,30.34,WNW,289,9.0,22.0,58,0.00,,,0.00,meteohub,2013-01-25 02:28:00,
2013-01-24 21:33:00,21.0,9.3,30.34,NW,320,14.0,22.0,60,0.00,,,0.00,meteohub,2013-01-25 02:33:00,
2013-01-24 21:38:00,20.8,7.7,30.35,NW,309,7.0,22.0,56,0.00,,,0.00,meteohub,2013-01-25 02:38:00,
2013-01-24 21:43:00,20.8,7.7,30.35,NW,311,11.0,22.0,56,0.00,,,0.00,meteohub,2013-01-25 02:43:00,
2013-01-24 21:48:00,20.7,8.2,30.35,NW,316,12.0,21.0,58,0.00,,,0.00,meteohub,2013-01-25 02:48:00,
2013-01-24 21:53:00,20.5,7.3,30.35,WNW,288,12.0,21.0,56,0.00,,,0.00,meteohub,2013-01-25 02:53:00,
2013-01-24 21:58:00,20.1,7.3,30.35,NW,304,11.0,21.0,57,0.00,,,0.00,meteohub,2013-01-25 02:58:00,
2013-01-24 22:03:00,19.9,6.4,30.35,WNW,300,12.0,21.0,55,0.00,,,0.00,meteohub,2013-01-25 03:03:00,
2013-01-24 22:08:00,19.9,6.8,30.36,WNW,291,12.0,21.0,56,0.00,,,0.00,meteohub,2013-01-25 03:08:00,
2013-01-24 22:13:00,20.1,7.7,30.36,NW,320,16.0,18.0,58,0.00,,,0.00,meteohub,2013-01-25 03:13:00,
2013-01-24 22:18:00,20.1,8.8,30.36,WNW,302,11.0,18.0,61,0.00,,,0.00,meteohub,2013-01-25 03:18:00,
2013-01-24 22:23:00,19.9,5.9,30.37,WNW,283,18.0,19.0,54,0.00,,,0.00,meteohub,2013-01-25 03:23:00,
2013-01-24 22:28:00,19.8,7.0,30.37,NW,312,14.0,24.0,57,0.00,,,0.00,meteohub,2013-01-25 03:28:00,
2013-01-24 22:33:00,19.9,7.9,30.36,WNW,295,11.0,24.0,59,0.00,,,0.00,meteohub,2013-01-25 03:33:00,
2013-01-24 22:38:00,20.1,8.4,30.37,NW,314,11.0,21.0,60,0.00,,,0.00,meteohub,2013-01-25 03:38:00,
2013-01-24 22:43:00,19.8,7.0,30.37,WNW,284,11.0,21.0,57,0.00,,,0.00,meteohub,2013-01-25 03:43:00,
2013-01-24 22:48:00,19.8,8.1,30.37,NW,314,13.0,21.0,60,0.00,,,0.00,meteohub,2013-01-25 03:48:00,
2013-01-24 22:53:00,19.6,7.5,30.37,WNW,301,15.0,21.0,59,0.00,,,0.00,meteohub,2013-01-25 03:53:00,
2013-01-24 22:58:00,19.6,7.2,30.37,NNW,335,11.0,21.0,58,0.00,,,0.00,meteohub,2013-01-25 03:58:00,
2013-01-24 23:03:00,19.6,7.2,30.37,WNW,299,11.0,21.0,58,0.00,,,0.00,meteohub,2013-01-25 04:03:00,
2013-01-24 23:08:00,19.6,7.5,30.36,NW,312,11.0,21.0,59,0.00,,,0.00,meteohub,2013-01-25 04:08:00,
2013-01-24 23:13:00,19.4,7.3,30.35,NW,306,13.0,21.0,59,0.00,,,0.00,meteohub,2013-01-25 04:13:00,
2013-01-24 23:19:00,19.4,7.0,30.36,WNW,290,11.0,20.0,58,0.00,,,0.00,meteohub,2013-01-25 04:19:00,
2013-01-24 23:24:00,19.4,6.6,30.36,WNW,302,12.0,20.0,57,0.00,,,0.00,meteohub,2013-01-25 04:24:00,
2013-01-24 23:29:00,19.6,8.2,30.35,WNW,300,18.0,28.0,61,0.00,,,0.00,meteohub,2013-01-25 04:29:00,
2013-01-24 23:34:00,19.6,8.6,30.35,WNW,287,11.0,28.0,62,0.00,,,0.00,meteohub,2013-01-25 04:34:00,
2013-01-24 23:39:00,19.4,8.1,30.35,WNW,291,12.0,28.0,61,0.00,,,0.00,meteohub,2013-01-25 04:39:00,
2013-01-24 23:44:00,19.6,9.3,30.35,WNW,300,17.0,24.0,64,0.00,,,0.00,meteohub,2013-01-25 04:44:00,
2013-01-24 23:49:00,19.6,8.6,30.35,WNW,295,7.0,24.0,62,0.00,,,0.00,meteohub,2013-01-25 04:49:00,
2013-01-24 23:54:00,19.6,7.5,30.36,NW,305,10.0,24.0,59,0.00,,,0.00,meteohub,2013-01-25 04:54:00,
2013-01-24 23:59:00,19.6,8.2,30.36,WNW,285,12.0,21.0,61,0.00,,,0.00,meteohub,2013-01-25 04:59:00,